Location: Unspecified
(51.0950°N, 12.9690°E)
Time: 15:03:59
(UTC+00:00)

Cosmos 1602 Rocket - Pass Details

Date: 28 October 2021
Orbit: 602 x 634 km, 82.5° (Epoch: 26 November)

Event Time Altitude Azimuth Distance (km) Brightness Sun altitude
Rises 17:14:12 0° 348° (NNW) 2,883 7.1 -13.8°
Reaches altitude 10° 17:16:27 10° 346° (NNW) 1,970 6.3 -14.2°
Maximum altitude 17:20:47 74° 263° (W) 635 3.7 -14.9°
Drops below altitude 10° 17:25:04 10° 178° (S) 1,945 6.1 -15.5°
Sets 17:27:16 0° 177° (S) 2,843 7.0 -15.9°
